TIME,DELAY(SENSOR),PRES,OXYGEN,RAWTEMP,T(OPTODE),TCPHASE,FLUOR,BETA(BETA700),BETA(BETA412),BETA(BETA440),CDOM,C(CSC),ED(ED412.40),ED(ED444.00),ED(ED489.70),ED(ED554.30),LU(LU411.80),LU(LU443.40),LU(LU489.60),LU(LU554.10),COMP,TILTX,TILTY,CHECK
1347248610,5809,856.5900268554688000,48.1416397094726560,665.3942871093750000,4.4502220153808590,53.8707885742187500,53,100,89,78,82,15298,2147759808,2147421440,2148008237,2147870445,2147642569,2147061321,2148258048,2147197970,1110,5,13,32589
1347252206,5810,937.2299804687500000,50.3330307006835940,673.3403930664062000,4.1877880096435550,53.6687698364257800,52,99,88,78,81,15293,2147757366,2147420141,2148011858,2147874249,2147641554,2147059181,2148269467,2147195702,2945,4,13,51379
1347255806,5808,960.5100097656250000,49.9956893920898440,673.4522705078125000,4.1840858459472660,53.7125816345214840,53,97,87,79,82,15293,2147762496,2147419904,2148009472,2147873097,2147645074,2147058258,2148258112,2147200283,2968,5,13,9480
1347259406,5807,990.7899780273438000,50.6967811584472660,674.8522949218750000,4.1377739906311035,53.6371612548828100,52,98,86,77,82,15290,2147763620,2147417590,2148010624,2147876361,2147641398,2147058212,2148258404,2147198381,176,4,13,12393
1347263006,5806,989.5200195312500000,50.6402397155761700,675.0833129882812000,4.1301288604736330,53.6446495056152340,53,98,94,80,81,15290,2147761060,2147419940,2148009572,2147873188,2147646171,2147060397,2148262966,2147197138,190,4,13,14183
1347266606,5811,986.4500122070312000,50.2649383544921900,677.1491699218750000,4.0617408752441410,53.7204093933105500,53,98,89,79,80,15287,2147764242,2147420114,2148012123,2147870774,2147646381,2147067181,2148262902,2147197613,264,4,13,16812
1347270206,5807,989.4299926757812000,50.5892181396484400,678.1176147460938000,4.0296688079833980,53.6949195861816400,52,96,86,80,82,15291,2147760365,2147420480,2148010880,2147874642,2147640329,2147060187,2148261019,2147198198,386,5,13,36011
1347273806,5808,994.9000244140625000,50.4645500183105500,678.6475219726562000,4.0121121406555180,53.7161293029785160,53,103,88,79,81,15286,2147759286,2147421220,2148008905,2147871890,2147643382,2147056045,2148261494,2147196123,3510,4,13,18176
1347277406,5808,981.6199951171875000,50.5646286010742200,679.2828979492188000,3.9910559654235840,53.7127990722656250,52,100,86,80,80,15284,2147763885,2147420068,2148009161,2147872896,2147645878,2147056941,2148263917,2147197074,3581,4,13,32015
1347281006,5809,986.4199829101562000,50.4661598205566400,679.5769042968750000,3.9813139438629150,53.7264404296875000,53,99,90,79,81,15283,2147764489,2147419629,2148010450,2147874267,2147644452,2147053668,2148254418,2147195337,107,4,13,10170
1347284606,5809,998.9799804687500000,50.5642509460449200,679.6345214843750000,3.9794061183929443,53.7168693542480500,53,99,87,79,81,15285,2147763894,2147422262,2148012708,2147872064,2147641536,2147058057,2148260397,2147201033,362,4,13,28046
1347288206,5807,1000.1099853515625000,50.3847618103027340,678.6007080078125000,4.0136618614196780,53.7262306213378900,52,100,88,80,81,15259,2147764498,2147417846,2148009920,2147868800,2147645814,2147056429,2148262052,2147197229,181,5,13,48579
1347291806,5808,1006.5499877929688000,50.3572311401367200,677.6920166015625000,4.0437641143798830,53.7206802368164060,52,102,87,78,82,15250,2147762276,2147418038,2148009846,2147873508,2147643629,2147062692,2148258907,2147197074,379,5,13,44061
1347295406,5808,999.7500000000000000,49.6791381835937500,677.3453979492188000,4.0552439689636230,53.8095893859863300,52,100,88,80,81,15242,2147762944,2147420864,2148010596,2147874816,2147644781,2147059364,2148260480,2147198985,2926,4,13,57108
1347299006,5807,993.7100219726562000,49.8141403198242200,677.4227294921875000,4.0526828765869140,53.7899017333984400,53,98,85,80,83,15244,2147762752,2147417846,2148007899,2147874934,2147642962,2147067913,2148262445,2147197869,182,5,13,18029
1347302606,5809,1010.6699829101562000,50.4444313049316400,678.3740234375000000,4.0211730003356930,53.7134513854980500,52,101,87,78,81,15244,2147760722,2147422281,2148007542,2147871853,2147643675,2147053586,2148260580,2147195099,3273,4,13,31420
1347306206,5809,1001.4899902343750000,49.6731185913085940,677.3593750000000000,4.0547809600830080,53.8057594299316400,52,98,90,79,83,15244,2147761526,2147418249,2148006756,2147872155,2147643666,2147053357,2148261632,2147195757,347,5,13,34449
1347309806,5806,999.3599853515625000,49.9305114746093750,678.5549926757812000,4.0151767730712890,53.7853889465332000,52,97,84,78,82,15242,2147762523,2147417627,2148009152,2147872429,2147641837,2147057252,2148263296,2147197485,56,5,13,18541
1347313406,5809,1011.2100219726562000,50.2674598693847660,678.0443115234375000,4.0320949554443360,53.7326698303222660,52,98,86,79,82,15254,2147762934,2147419712,2148011712,2147871405,2147641856,2147056649,2148263323,2147197165,68,5,13,63499
1347317006,5807,1002.7999877929688000,49.8666992187500000,678.5930786132812000,4.0139122009277340,53.7987594604492200,52,98,85,78,83,15248,2147761810,2147423067,2148009984,2147872621,2147643638,2147060059,2148258642,2147197458,3449,4,13,55971
1347320606,5810,998.2399902343750000,50.4316101074218750,680.0930786132812000,3.9642009735107420,53.7368583679199200,53,97,89,78,81,15246,2147765202,2147419392,2148009764,2147869577,2147645504,2147058715,2148260489,2147196050,3550,4,13,50228
1347324206,5808,995.4899902343750000,50.3955001831054700,680.7656860351562000,3.9419040679931640,53.7529106140136700,52,103,88,80,82,15251,2147762413,2147419510,2148010285,2147873892,2147646939,2147054518,2148263305,2147198948,3577,4,13,55823
1347327806,5812,991.9799804687500000,50.8196983337402340,681.1072998046875000,3.9305779933929443,53.6969795227050800,53,97,92,79,83,15252,2147763712,2147420022,2148011172,2147873170,2147644854,2147056896,2148261019,2147197796,454,5,13,17693
1347331406,5809,995.6900024414062000,50.6453094482421900,680.4901123046875000,3.9510419368743896,53.7121391296386700,52,98,87,80,82,15252,2147760274,2147420827,2148011995,2147874148,2147643200,2147058889,2148253906,2147197458,3563,5,13,61655
1347335006,5811,998.5000000000000000,50.6635017395019500,680.4760742187500000,3.9515058994293213,53.7084197998046900,52,98,84,79,82,15231,2147763885,2147418596,2148007670,2147870610,2147641810,2147062820,2148263040,2147195428,13,5,13,696
1347338606,5809,1006.2700195312500000,50.5956001281738300,679.4650878906250000,3.9850180149078370,53.7100715637207000,53,97,85,78,82,15232,2147763437,2147420297,2148008932,2147873773,2147641298,2147057088,2148261851,2147198756,3522,4,13,8925
1347342206,5805,1001.6300048828125000,50.2642211914062500,679.3414916992188000,3.9891149997711180,53.7504615783691400,52,99,88,78,82,15233,2147761846,2147421979,2148009956,2147875309,2147642020,2147052333,2148257910,2147195885,276,4,13,39428
1347345806,5809,1002.5300292968750000,50.3690910339355500,679.3743286132812000,3.9880259037017822,53.7367706298828100,53,103,89,77,83,15229,2147760640,2147420004,2148010285,2147874459,2147641709,2147056064,2148256996,2147202093,3042,4,13,42637
1347349406,5810,1003.1799926757812000,50.1573715209960940,679.6917724609375000,3.9775030612945557,53.7694816589355500,53,99,86,78,82,15229,2147763858,2147421028,2148009984,2147873737,2147641280,2147059849,2148261037,2147198848,3386,4,13,37530
1347353006,5808,1006.0999755859375000,49.9052886962890600,678.5045776367188000,4.0168461799621580,53.7929801940918000,52,103,89,80,81,15228,2147759606,2147420900,2148010697,2147870829,2147644635,2147057289,2148257106,2147195437,305,4,13,39166
1347356606,5804,1002.3200073242188000,49.5481491088867200,678.6718750000000000,4.0113029479980470,53.8392105102539060,52,99,88,80,83,15226,2147760804,2147421622,2148010916,2147876333,2147643629,2147057664,2148261275,2147195172,3375,4,13,62855
1347360206,5808,992.9600219726562000,49.9032211303710940,679.9841918945312000,3.9678130149841310,53.8098983764648440,51,100,86,79,81,15230,2147760457,2147419995,2148011446,2147872530,2147641124,2147058148,2148262363,2147194441,2530,4,13,55896
1347363806,5811,1004.5399780273438000,51.8917617797851560,680.5590820312500000,3.9487531185150146,53.5493888854980500,52,99,88,80,82,15228,2147762651,2147422043,2148010715,2147872795,2147645357,2147052352,2148261970,2147195830,55,5,13,22817
1347367406,5808,1000.2999877929688000,51.0984001159668000,680.6176147460938000,3.9468169212341310,53.6543807983398440,51,98,88,78,83,15230,2147759926,2147419931,2148009627,2147871149,2147646601,2147055268,2148259456,2147194075,66,5,13,33672
1347371006,5808,1004.2999877929688000,50.5647697448730500,679.8339843750000000,3.9727940559387207,53.7139091491699200,52,124,88,79,82,15229,2147766043,2147422089,2148009472,2147875401,2147643190,2147055049,2148259565,2147195766,238,5,13,32643
1347374606,5807,1010.0200195312500000,51.2695617675781250,679.8406982421875000,3.9725689888000490,53.6241607666015600,52,98,88,80,82,15227,2147762742,2147420278,2148013229,2147870784,2147641801,2147052571,2148260160,2147193856,3333,4,13,59436
1347378206,5811,1006.5999755859375000,51.0896492004394500,679.7614135742188000,3.9751989841461180,53.6450309753418000,52,98,85,78,82,15224,2147762596,2147420955,2148011392,2147873627,2147646253,2147058816,2148261942,2147193929,113,5,13,22857
1347381806,5809,1005.0999755859375000,50.1533889770507800,679.6094970703125000,3.9802320003509520,53.7710304260253900,53,98,90,79,83,15225,2147761499,2147419456,2148009819,2147872969,2147644416,2147059209,2148262784,2147193334,57,5,13,64103
1347385406,5809,1004.3099975585938000,50.0405616760253900,679.5062255859375000,3.9836559295654297,53.7839584350585940,52,105,88,79,82,15223,2147762459,2147419812,2148009344,2147871542,2147642998,2147055972,2148259520,2147196909,3451,4,13,23052
1347389006,5812,1014.3699951171875000,50.0220489501953100,678.6638793945312000,4.0115680694580080,53.7733917236328100,53,98,86,80,81,15221,2147766436,2147419337,2148008045,2147871131,2147640667,2147059428,2148262692,2147198948,95,5,13,1036
1347392606,5807,1008.2700195312500000,49.1063995361328100,678.7235717773438000,4.0095901489257810,53.9055290222168000,53,99,84,79,81,15222,2147763757,2147421376,2148008822,2147873426,2147641088,2147063762,2148260900,2147198820,3304,4,13,28281
1347393056,5812,1009.3599853515625000,49.2398490905761700,678.7274780273438000,4.0094618797302250,53.8829689025878900,52,98,86,78,83,15272,2147763840,2147420388,2148008256,2147875382,2147642669,2147064356,2148266404,2147201225,3479,4,13,6932
